Year,Month,Day,Hour,Minute,Value (Times are PST for temperature in C)
2014,09,21,00,00,12.60
2014,09,21,00,01,12.60
2014,09,21,00,02,12.60
2014,09,21,00,03,12.60
2014,09,21,00,04,12.60
2014,09,21,00,05,12.60
2014,09,21,00,06,12.60
2014,09,21,00,07,12.60
2014,09,21,00,08,12.60
2014,09,21,00,09,12.50
2014,09,21,00,10,12.50
2014,09,21,00,11,12.60
2014,09,21,00,12,12.60
2014,09,21,00,13,12.60
2014,09,21,00,14,12.60
2014,09,21,00,15,12.60
2014,09,21,00,16,12.60
2014,09,21,00,17,12.60
2014,09,21,00,18,12.60
2014,09,21,00,19,12.60
2014,09,21,00,20,12.60
2014,09,21,00,21,12.60
2014,09,21,00,22,12.70
2014,09,21,00,23,12.70
2014,09,21,00,24,12.70
2014,09,21,00,25,12.60
2014,09,21,00,26,12.70
2014,09,21,00,27,12.70
2014,09,21,00,28,12.60
2014,09,21,00,29,12.60
2014,09,21,00,30,12.60
2014,09,21,00,31,12.70
2014,09,21,00,32,12.70
2014,09,21,00,33,12.70
2014,09,21,00,34,12.70
2014,09,21,00,35,12.70
2014,09,21,00,36,12.70
2014,09,21,00,37,12.60
2014,09,21,00,38,12.60
2014,09,21,00,39,12.60
2014,09,21,00,40,12.60
2014,09,21,00,41,12.60
2014,09,21,00,42,12.60
2014,09,21,00,43,12.60
2014,09,21,00,44,12.60
2014,09,21,00,45,12.50
2014,09,21,00,46,12.50
2014,09,21,00,47,12.50
2014,09,21,00,48,12.60
2014,09,21,00,49,12.60
2014,09,21,00,50,12.70
2014,09,21,00,51,12.70
2014,09,21,00,52,12.80
2014,09,21,00,53,12.80
2014,09,21,00,54,12.80
2014,09,21,00,55,12.80
2014,09,21,00,56,12.80
2014,09,21,00,57,12.80
2014,09,21,00,58,12.80
2014,09,21,00,59,12.80
2014,09,21,01,00,12.80
2014,09,21,01,01,12.80
2014,09,21,01,02,12.80
2014,09,21,01,03,12.80
2014,09,21,01,04,12.80
2014,09,21,01,05,12.80
2014,09,21,01,06,12.80
2014,09,21,01,07,12.80
2014,09,21,01,08,12.90
2014,09,21,01,09,13.00
2014,09,21,01,10,13.00
2014,09,21,01,11,13.00
2014,09,21,01,12,13.10
2014,09,21,01,13,13.10
2014,09,21,01,14,13.20
2014,09,21,01,15,13.30
2014,09,21,01,16,13.30
2014,09,21,01,17,13.40
2014,09,21,01,18,13.50
2014,09,21,01,19,13.50
2014,09,21,01,20,13.50
2014,09,21,01,21,13.50
2014,09,21,01,22,13.50
2014,09,21,01,23,13.50
2014,09,21,01,24,13.50
2014,09,21,01,25,13.50
2014,09,21,01,26,13.50
2014,09,21,01,27,13.40
2014,09,21,01,28,13.50
2014,09,21,01,29,13.50
2014,09,21,01,30,13.60
2014,09,21,01,31,13.60
2014,09,21,01,32,13.70
2014,09,21,01,33,13.70
2014,09,21,01,34,13.70
2014,09,21,01,35,13.80
2014,09,21,01,36,13.80
2014,09,21,01,37,13.80
2014,09,21,01,38,13.90
2014,09,21,01,39,13.90
2014,09,21,01,40,14.00
2014,09,21,01,41,14.00
2014,09,21,01,42,14.00
2014,09,21,01,43,14.00
2014,09,21,01,44,14.00
2014,09,21,01,45,13.90
2014,09,21,01,46,13.90
2014,09,21,01,47,13.90
2014,09,21,01,48,13.90
2014,09,21,01,49,13.90
2014,09,21,01,50,13.80
2014,09,21,01,51,13.80
2014,09,21,01,52,13.80
2014,09,21,01,53,13.70
2014,09,21,01,54,13.60
2014,09,21,01,55,13.60
2014,09,21,01,56,13.50
2014,09,21,01,57,13.50
2014,09,21,01,58,13.40
2014,09,21,01,59,13.40
2014,09,21,02,00,13.30
2014,09,21,02,01,13.30
2014,09,21,02,02,13.30
2014,09,21,02,03,13.30
2014,09,21,02,04,13.30
2014,09,21,02,05,13.30
2014,09,21,02,06,13.20
2014,09,21,02,07,13.20
2014,09,21,02,08,13.20
2014,09,21,02,09,13.20
2014,09,21,02,10,13.20
2014,09,21,02,11,13.30
2014,09,21,02,12,13.30
2014,09,21,02,13,13.30
2014,09,21,02,14,13.30
2014,09,21,02,15,13.30
2014,09,21,02,16,13.30
2014,09,21,02,17,13.20
2014,09,21,02,18,13.20
2014,09,21,02,19,13.20
2014,09,21,02,20,13.10
2014,09,21,02,21,13.10
2014,09,21,02,22,13.10
2014,09,21,02,23,13.00
2014,09,21,02,24,13.00
2014,09,21,02,25,13.00
2014,09,21,02,26,12.90
2014,09,21,02,27,12.90
2014,09,21,02,28,12.90
2014,09,21,02,29,12.90
2014,09,21,02,30,12.90
2014,09,21,02,31,12.90
2014,09,21,02,32,12.80
2014,09,21,02,33,12.80
2014,09,21,02,34,12.80
2014,09,21,02,35,12.80
2014,09,21,02,36,12.80
2014,09,21,02,37,12.80
2014,09,21,02,38,12.80
2014,09,21,02,39,12.80
2014,09,21,02,40,12.80
2014,09,21,02,41,12.80
2014,09,21,02,42,12.80
2014,09,21,02,43,12.80
2014,09,21,02,44,12.80
2014,09,21,02,45,12.80
2014,09,21,02,46,12.80
2014,09,21,02,47,12.80
2014,09,21,02,48,12.80
2014,09,21,02,49,12.80
2014,09,21,02,50,12.80
2014,09,21,02,51,12.80
2014,09,21,02,52,12.80
2014,09,21,02,53,12.80
2014,09,21,02,54,12.80
2014,09,21,02,55,12.80
2014,09,21,02,56,12.70
2014,09,21,02,57,12.70
2014,09,21,02,58,12.70
2014,09,21,02,59,12.60
2014,09,21,03,00,12.60
2014,09,21,03,01,12.50
2014,09,21,03,02,12.50
2014,09,21,03,03,12.50
2014,09,21,03,04,12.50
2014,09,21,03,05,12.50
2014,09,21,03,06,12.50
2014,09,21,03,07,12.50
2014,09,21,03,08,12.50
2014,09,21,03,09,12.50
2014,09,21,03,10,12.50
2014,09,21,03,11,12.50
2014,09,21,03,12,12.50
2014,09,21,03,13,12.50
2014,09,21,03,14,12.50
2014,09,21,03,15,12.50
2014,09,21,03,16,12.40
2014,09,21,03,17,12.40
2014,09,21,03,18,12.30
2014,09,21,03,19,12.30
2014,09,21,03,20,12.30
2014,09,21,03,21,12.30
2014,09,21,03,22,12.30
2014,09,21,03,23,12.30
2014,09,21,03,24,12.40
2014,09,21,03,25,12.40
2014,09,21,03,26,12.40
2014,09,21,03,27,12.50
2014,09,21,03,28,12.50
2014,09,21,03,29,12.60
2014,09,21,03,30,12.60
2014,09,21,03,31,12.70
2014,09,21,03,32,12.80
2014,09,21,03,33,12.80
2014,09,21,03,34,12.80
2014,09,21,03,35,12.90
2014,09,21,03,36,12.90
2014,09,21,03,37,13.00
2014,09,21,03,38,13.00
2014,09,21,03,39,13.00
2014,09,21,03,40,13.00
2014,09,21,03,41,13.10
2014,09,21,03,42,13.10
2014,09,21,03,43,13.10
2014,09,21,03,44,13.10
2014,09,21,03,45,13.20
2014,09,21,03,46,13.20
2014,09,21,03,47,13.20
2014,09,21,03,48,13.20
2014,09,21,03,49,13.30
2014,09,21,03,50,13.30
2014,09,21,03,51,13.30
2014,09,21,03,52,13.30
2014,09,21,03,53,13.40
2014,09,21,03,54,13.40
2014,09,21,03,55,13.50
2014,09,21,03,56,13.50
2014,09,21,03,57,13.50
2014,09,21,03,58,13.60
2014,09,21,03,59,13.60
2014,09,21,04,00,13.60
2014,09,21,04,01,13.70
2014,09,21,04,02,13.70
2014,09,21,04,03,13.70
2014,09,21,04,04,13.70
2014,09,21,04,05,13.70
2014,09,21,04,06,13.70
2014,09,21,04,07,13.70
2014,09,21,04,08,13.70
2014,09,21,04,09,13.70
2014,09,21,04,10,13.60
2014,09,21,04,11,13.60
2014,09,21,04,12,13.60
2014,09,21,04,13,13.50
2014,09,21,04,14,13.50
2014,09,21,04,15,13.50
2014,09,21,04,16,13.40
2014,09,21,04,17,13.40
2014,09,21,04,18,13.40
2014,09,21,04,19,13.50
2014,09,21,04,20,13.50
2014,09,21,04,21,13.50
2014,09,21,04,22,13.50
2014,09,21,04,23,13.40
2014,09,21,04,24,13.40
2014,09,21,04,25,13.40
2014,09,21,04,26,13.30
2014,09,21,04,27,13.30
2014,09,21,04,28,13.30
2014,09,21,04,29,13.30
2014,09,21,04,30,13.20
2014,09,21,04,31,13.20
2014,09,21,04,32,13.10
2014,09,21,04,33,13.10
2014,09,21,04,34,13.00
2014,09,21,04,35,13.00
2014,09,21,04,36,13.00
2014,09,21,04,37,12.90
2014,09,21,04,38,12.90
2014,09,21,04,39,12.90
2014,09,21,04,40,12.80
2014,09,21,04,41,12.80
2014,09,21,04,42,12.80
2014,09,21,04,43,12.70
2014,09,21,04,44,12.70
2014,09,21,04,45,12.70
2014,09,21,04,46,12.60
2014,09,21,04,47,12.60
2014,09,21,04,48,12.60
2014,09,21,04,49,12.50
2014,09,21,04,50,12.50
2014,09,21,04,51,12.50
2014,09,21,04,52,12.40
2014,09,21,04,53,12.40
2014,09,21,04,54,12.40
2014,09,21,04,55,12.30
2014,09,21,04,56,12.30
2014,09,21,04,57,12.30
2014,09,21,04,58,12.20
2014,09,21,04,59,12.20
2014,09,21,05,00,12.10
2014,09,21,05,01,12.10
2014,09,21,05,02,12.10
2014,09,21,05,03,12.10
2014,09,21,05,04,12.10
2014,09,21,05,05,12.10
2014,09,21,05,06,12.10
2014,09,21,05,07,12.20
2014,09,21,05,08,12.20
2014,09,21,05,09,12.20
2014,09,21,05,10,12.20
2014,09,21,05,11,12.20
2014,09,21,05,12,12.20
2014,09,21,05,13,12.20
2014,09,21,05,14,12.20
2014,09,21,05,15,12.20
2014,09,21,05,16,12.20
2014,09,21,05,17,12.20
2014,09,21,05,18,12.30
2014,09,21,05,19,12.30
2014,09,21,05,20,12.30
2014,09,21,05,21,12.40
2014,09,21,05,22,12.40
2014,09,21,05,23,12.40
2014,09,21,05,24,12.40
2014,09,21,05,25,12.40
2014,09,21,05,26,12.40
2014,09,21,05,27,12.50
2014,09,21,05,28,12.50
2014,09,21,05,29,12.50
2014,09,21,05,30,12.50
2014,09,21,05,31,12.50
2014,09,21,05,32,12.50
2014,09,21,05,33,12.50
2014,09,21,05,34,12.50
2014,09,21,05,35,12.40
2014,09,21,05,36,12.40
2014,09,21,05,37,12.40
2014,09,21,05,38,12.30
2014,09,21,05,39,12.30
2014,09,21,05,40,12.30
2014,09,21,05,41,12.20
2014,09,21,05,42,12.20
2014,09,21,05,43,12.20
2014,09,21,05,44,12.20
2014,09,21,05,45,12.20
2014,09,21,05,46,12.20
2014,09,21,05,47,12.20
2014,09,21,05,48,12.20
2014,09,21,05,49,12.20
2014,09,21,05,50,12.20
2014,09,21,05,51,12.20
2014,09,21,05,52,12.10
2014,09,21,05,53,12.10
2014,09,21,05,54,12.10
2014,09,21,05,55,12.00
2014,09,21,05,56,12.00
2014,09,21,05,57,11.90
2014,09,21,05,58,11.90
2014,09,21,05,59,11.80
2014,09,21,06,00,11.80
2014,09,21,06,01,11.80
2014,09,21,06,02,11.80
2014,09,21,06,03,11.80
2014,09,21,06,04,11.80
2014,09,21,06,05,11.80
2014,09,21,06,06,11.80
2014,09,21,06,07,11.80
2014,09,21,06,08,11.80
2014,09,21,06,09,11.80
2014,09,21,06,10,11.80
2014,09,21,06,11,11.70
2014,09,21,06,12,11.70
2014,09,21,06,13,11.70
2014,09,21,06,14,11.80
2014,09,21,06,15,11.80
2014,09,21,06,16,11.80
2014,09,21,06,17,11.80
2014,09,21,06,18,11.70
2014,09,21,06,19,11.70
2014,09,21,06,20,11.70
2014,09,21,06,21,11.70
2014,09,21,06,22,11.80
2014,09,21,06,23,11.80
2014,09,21,06,24,11.80
2014,09,21,06,25,11.80
2014,09,21,06,26,11.80
2014,09,21,06,27,11.80
2014,09,21,06,28,11.80
2014,09,21,06,29,11.90
2014,09,21,06,30,11.90
2014,09,21,06,31,11.90
2014,09,21,06,32,11.90
2014,09,21,06,33,11.90
2014,09,21,06,34,11.90
2014,09,21,06,35,11.90
2014,09,21,06,36,11.90
2014,09,21,06,37,11.90
2014,09,21,06,38,11.90
2014,09,21,06,39,11.90
2014,09,21,06,40,11.90
2014,09,21,06,41,11.90
2014,09,21,06,42,11.90
2014,09,21,06,43,11.90
2014,09,21,06,44,11.90
2014,09,21,06,45,11.90
2014,09,21,06,46,12.00
2014,09,21,06,47,12.00
2014,09,21,06,48,12.00
2014,09,21,06,49,12.00
2014,09,21,06,50,11.90
2014,09,21,06,51,11.90
2014,09,21,06,52,11.90
2014,09,21,06,53,11.90
2014,09,21,06,54,11.90
2014,09,21,06,55,11.90
2014,09,21,06,56,11.90
2014,09,21,06,57,11.90
2014,09,21,06,58,11.90
2014,09,21,06,59,11.90
2014,09,21,07,00,11.90
2014,09,21,07,01,11.90
2014,09,21,07,02,11.90
2014,09,21,07,03,11.90
2014,09,21,07,04,11.90
2014,09,21,07,05,11.90
2014,09,21,07,06,11.90
2014,09,21,07,07,11.90
2014,09,21,07,08,11.90
2014,09,21,07,09,11.90
2014,09,21,07,10,11.90
2014,09,21,07,11,11.80
2014,09,21,07,12,11.80
2014,09,21,07,13,11.80
2014,09,21,07,14,11.80
2014,09,21,07,15,11.80
2014,09,21,07,16,11.80
2014,09,21,07,17,11.80
2014,09,21,07,18,11.80
2014,09,21,07,19,11.80
2014,09,21,07,20,11.90
2014,09,21,07,21,11.90
2014,09,21,07,22,11.90
2014,09,21,07,23,11.90
2014,09,21,07,24,11.90
2014,09,21,07,25,11.90
2014,09,21,07,26,11.90
2014,09,21,07,27,11.90
2014,09,21,07,28,11.80
2014,09,21,07,29,11.80
2014,09,21,07,30,11.80
2014,09,21,07,31,11.80
2014,09,21,07,32,11.80
2014,09,21,07,33,11.80
2014,09,21,07,34,11.80
2014,09,21,07,35,11.80
2014,09,21,07,36,11.80
2014,09,21,07,37,11.80
2014,09,21,07,38,11.80
2014,09,21,07,39,11.90
2014,09,21,07,40,12.00
2014,09,21,07,41,12.00
2014,09,21,07,42,12.10
2014,09,21,07,43,12.20
2014,09,21,07,44,12.30
2014,09,21,07,45,12.30
2014,09,21,07,46,12.40
2014,09,21,07,47,12.40
2014,09,21,07,48,12.50
2014,09,21,07,49,12.50
2014,09,21,07,50,12.60
2014,09,21,07,51,12.60
2014,09,21,07,52,12.60
2014,09,21,07,53,12.70
2014,09,21,07,54,12.70
2014,09,21,07,55,12.80
2014,09,21,07,56,12.80
2014,09,21,07,57,12.80
2014,09,21,07,58,12.80
2014,09,21,07,59,12.90
2014,09,21,08,00,12.90
2014,09,21,08,01,13.00
2014,09,21,08,02,13.00
2014,09,21,08,03,13.10
2014,09,21,08,04,13.10
2014,09,21,08,05,13.20
2014,09,21,08,06,13.30
2014,09,21,08,07,13.30
2014,09,21,08,08,13.30
2014,09,21,08,09,13.40
2014,09,21,08,10,13.40
2014,09,21,08,11,13.50
2014,09,21,08,12,13.50
2014,09,21,08,13,13.50
2014,09,21,08,14,13.60
2014,09,21,08,15,13.60
2014,09,21,08,16,13.70
2014,09,21,08,17,13.70
2014,09,21,08,18,13.80
2014,09,21,08,19,13.90
2014,09,21,08,20,13.90
2014,09,21,08,21,14.00
2014,09,21,08,22,14.00
2014,09,21,08,23,14.10
2014,09,21,08,24,14.10
2014,09,21,08,25,14.20
2014,09,21,08,26,14.20
2014,09,21,08,27,14.30
2014,09,21,08,28,14.40
2014,09,21,08,29,14.50
2014,09,21,08,30,14.50
2014,09,21,08,31,14.60
2014,09,21,08,32,14.60
2014,09,21,08,33,14.60
2014,09,21,08,34,14.70
2014,09,21,08,35,14.80
2014,09,21,08,36,14.80
2014,09,21,08,37,14.80
2014,09,21,08,38,14.90
2014,09,21,08,39,14.90
2014,09,21,08,40,15.00
2014,09,21,08,41,15.10
2014,09,21,08,42,15.10
2014,09,21,08,43,15.20
2014,09,21,08,44,15.20
2014,09,21,08,45,15.30
2014,09,21,08,46,15.30
2014,09,21,08,47,15.30
2014,09,21,08,48,15.40
2014,09,21,08,49,15.50
2014,09,21,08,50,15.50
2014,09,21,08,51,15.60
2014,09,21,08,52,15.70
2014,09,21,08,53,15.70
2014,09,21,08,54,15.80
2014,09,21,08,55,15.80
2014,09,21,08,56,15.90
2014,09,21,08,57,16.00
2014,09,21,08,58,16.10
2014,09,21,08,59,16.20
2014,09,21,09,00,16.20
2014,09,21,09,01,16.30
2014,09,21,09,02,16.30
2014,09,21,09,03,16.40
2014,09,21,09,04,16.50
2014,09,21,09,05,16.60
2014,09,21,09,06,16.60
2014,09,21,09,07,16.70
2014,09,21,09,08,16.80
2014,09,21,09,09,16.90
2014,09,21,09,10,16.90
2014,09,21,09,11,17.00
2014,09,21,09,12,17.10
2014,09,21,09,13,17.20
2014,09,21,09,14,17.30
2014,09,21,09,15,17.40
2014,09,21,09,16,17.40
2014,09,21,09,17,17.50
2014,09,21,09,18,17.60
2014,09,21,09,19,17.70
2014,09,21,09,20,17.80
2014,09,21,09,21,17.80
2014,09,21,09,22,17.90
2014,09,21,09,23,17.90
2014,09,21,09,24,18.10
2014,09,21,09,25,18.10
2014,09,21,09,26,18.20
2014,09,21,09,27,18.20
2014,09,21,09,28,18.30
2014,09,21,09,29,18.40
2014,09,21,09,30,18.50
2014,09,21,09,31,18.50
2014,09,21,09,32,18.60
2014,09,21,09,33,18.70
2014,09,21,09,34,18.80
2014,09,21,09,35,18.80
2014,09,21,09,36,18.90
2014,09,21,09,37,19.00
2014,09,21,09,38,19.10
2014,09,21,09,39,19.10
2014,09,21,09,40,19.10
2014,09,21,09,41,19.20
2014,09,21,09,42,19.20
2014,09,21,09,43,19.20
2014,09,21,09,44,19.30
2014,09,21,09,45,19.30
2014,09,21,09,46,19.40
2014,09,21,09,47,19.40
2014,09,21,09,48,19.40
2014,09,21,09,49,19.50
2014,09,21,09,50,19.50
2014,09,21,09,51,19.50
2014,09,21,09,52,19.60
2014,09,21,09,53,19.60
2014,09,21,09,54,19.60
2014,09,21,09,55,19.60
2014,09,21,09,56,19.60
2014,09,21,09,57,19.70
2014,09,21,09,58,19.70
2014,09,21,09,59,19.80
2014,09,21,10,00,19.90
2014,09,21,10,01,19.90
2014,09,21,10,02,20.00
2014,09,21,10,03,20.10
2014,09,21,10,04,20.10
2014,09,21,10,05,20.20
2014,09,21,10,06,20.20
2014,09,21,10,07,20.30
2014,09,21,10,08,20.40
2014,09,21,10,09,20.50
2014,09,21,10,10,20.60
2014,09,21,10,11,20.70
2014,09,21,10,12,20.70
2014,09,21,10,13,20.80
2014,09,21,10,14,20.80
2014,09,21,10,15,20.80
2014,09,21,10,16,20.80
2014,09,21,10,17,20.90
2014,09,21,10,18,21.00
2014,09,21,10,19,21.00
2014,09,21,10,20,21.10
2014,09,21,10,21,21.10
2014,09,21,10,22,21.10
2014,09,21,10,23,21.20
2014,09,21,10,24,21.20
2014,09,21,10,25,21.30
2014,09,21,10,26,21.30
2014,09,21,10,27,21.30
2014,09,21,10,28,21.30
2014,09,21,10,29,21.30
2014,09,21,10,30,21.30
2014,09,21,10,31,21.30
2014,09,21,10,32,21.30
2014,09,21,10,33,21.30
2014,09,21,10,34,21.30
2014,09,21,10,35,21.30
2014,09,21,10,36,21.30
2014,09,21,10,37,21.30
2014,09,21,10,38,21.40
2014,09,21,10,39,21.40
2014,09,21,10,40,21.40
2014,09,21,10,41,21.40
2014,09,21,10,42,21.50
2014,09,21,10,43,21.60
2014,09,21,10,44,21.60
2014,09,21,10,45,21.60
2014,09,21,10,46,21.60
2014,09,21,10,47,21.60
2014,09,21,10,48,21.60
2014,09,21,10,49,21.60
2014,09,21,10,50,21.60
2014,09,21,10,51,21.60
2014,09,21,10,52,21.60
2014,09,21,10,53,21.60
2014,09,21,10,54,21.60
2014,09,21,10,55,21.60
2014,09,21,10,56,21.60
2014,09,21,10,57,21.60
2014,09,21,10,58,21.60
2014,09,21,10,59,21.50
2014,09,21,11,00,21.40
2014,09,21,11,01,21.40
2014,09,21,11,02,21.30
2014,09,21,11,03,21.30
2014,09,21,11,04,21.30
2014,09,21,11,05,21.40
2014,09,21,11,06,21.40
2014,09,21,11,07,21.50
2014,09,21,11,08,21.60
2014,09,21,11,09,21.60
2014,09,21,11,10,21.70
2014,09,21,11,11,21.80
2014,09,21,11,12,21.80
2014,09,21,11,13,21.80
2014,09,21,11,14,21.80
2014,09,21,11,15,21.80
2014,09,21,11,16,21.80
2014,09,21,11,17,21.80
2014,09,21,11,18,21.80
2014,09,21,11,19,21.80
2014,09,21,11,20,21.80
2014,09,21,11,21,21.70
2014,09,21,11,22,21.70
2014,09,21,11,23,21.70
2014,09,21,11,24,21.70
2014,09,21,11,25,21.70
2014,09,21,11,26,21.80
2014,09,21,11,27,21.70
2014,09,21,11,28,21.70
2014,09,21,11,29,21.60
2014,09,21,11,30,21.60
2014,09,21,11,31,21.70
2014,09,21,11,32,21.70
2014,09,21,11,33,21.70
2014,09,21,11,34,21.80
2014,09,21,11,35,21.90
2014,09,21,11,36,21.90
2014,09,21,11,37,21.90
2014,09,21,11,38,21.90
2014,09,21,11,39,21.80
2014,09,21,11,40,21.80
2014,09,21,11,41,21.80
2014,09,21,11,42,21.80
2014,09,21,11,43,21.80
2014,09,21,11,44,21.80
2014,09,21,11,45,21.80
2014,09,21,11,46,21.80
2014,09,21,11,47,21.80
2014,09,21,11,48,21.80
2014,09,21,11,49,21.90
2014,09,21,11,50,21.90
2014,09,21,11,51,21.90
2014,09,21,11,52,21.90
2014,09,21,11,53,21.90
2014,09,21,11,54,21.80
2014,09,21,11,55,21.70
2014,09,21,11,56,21.70
2014,09,21,11,57,21.60
2014,09,21,11,58,21.60
2014,09,21,11,59,21.60
2014,09,21,12,00,21.60
2014,09,21,12,01,21.60
2014,09,21,12,02,21.60
2014,09,21,12,03,21.60
2014,09,21,12,04,21.60
2014,09,21,12,05,21.70
2014,09,21,12,06,21.60
2014,09,21,12,07,21.60
2014,09,21,12,08,21.60
2014,09,21,12,09,21.50
2014,09,21,12,10,21.40
2014,09,21,12,11,21.30
2014,09,21,12,12,21.30
2014,09,21,12,13,21.20
2014,09,21,12,14,21.20
2014,09,21,12,15,21.20
2014,09,21,12,16,21.20
2014,09,21,12,17,21.30
2014,09,21,12,18,21.30
2014,09,21,12,19,21.30
2014,09,21,12,20,21.10
2014,09,21,12,21,21.00
2014,09,21,12,22,20.90
2014,09,21,12,23,20.80
2014,09,21,12,24,20.70
2014,09,21,12,25,20.60
2014,09,21,12,26,20.50
2014,09,21,12,27,20.40
2014,09,21,12,28,20.50
2014,09,21,12,29,20.60
2014,09,21,12,30,20.70
2014,09,21,12,31,20.90
2014,09,21,12,32,21.00
2014,09,21,12,33,21.00
2014,09,21,12,34,21.10
2014,09,21,12,35,21.10
2014,09,21,12,36,21.20
2014,09,21,12,37,21.20
2014,09,21,12,38,21.20
2014,09,21,12,39,21.30
2014,09,21,12,40,21.30
2014,09,21,12,41,21.30
2014,09,21,12,42,21.30
2014,09,21,12,43,21.40
2014,09,21,12,44,21.50
2014,09,21,12,45,21.60
2014,09,21,12,46,21.60
2014,09,21,12,47,21.70
2014,09,21,12,48,21.80
2014,09,21,12,49,21.90
2014,09,21,12,50,22.00
2014,09,21,12,51,22.00
2014,09,21,12,52,22.10
2014,09,21,12,53,22.20
2014,09,21,12,54,22.20
2014,09,21,12,55,22.20
2014,09,21,12,56,22.20
2014,09,21,12,57,22.20
2014,09,21,12,58,22.30
2014,09,21,12,59,22.30
2014,09,21,13,00,22.40
2014,09,21,13,01,22.40
2014,09,21,13,02,22.40
2014,09,21,13,03,22.50
2014,09,21,13,04,22.50
2014,09,21,13,05,22.60
2014,09,21,13,06,22.60
2014,09,21,13,07,22.60
2014,09,21,13,08,22.50
2014,09,21,13,09,22.50
2014,09,21,13,10,22.40
2014,09,21,13,11,22.30
2014,09,21,13,12,22.30
2014,09,21,13,13,22.10
2014,09,21,13,14,22.00
2014,09,21,13,15,21.80
2014,09,21,13,16,21.70
2014,09,21,13,17,21.70
2014,09,21,13,18,21.70
2014,09,21,13,19,21.70
2014,09,21,13,20,21.70
2014,09,21,13,21,21.70
2014,09,21,13,22,21.60
2014,09,21,13,23,21.70
2014,09,21,13,24,21.70
2014,09,21,13,25,21.70
2014,09,21,13,26,21.60
2014,09,21,13,27,21.70
2014,09,21,13,28,21.70
2014,09,21,13,29,21.90
2014,09,21,13,30,22.00
2014,09,21,13,31,22.00
2014,09,21,13,32,22.00
2014,09,21,13,33,22.00
2014,09,21,13,34,22.00
2014,09,21,13,35,22.10
2014,09,21,13,36,22.10
2014,09,21,13,37,22.10
2014,09,21,13,38,22.20
2014,09,21,13,39,22.20
2014,09,21,13,40,22.30
2014,09,21,13,41,22.10
2014,09,21,13,42,21.90
2014,09,21,13,43,21.60
2014,09,21,13,44,21.40
2014,09,21,13,45,21.10
2014,09,21,13,46,20.80
2014,09,21,13,47,20.50
2014,09,21,13,48,20.30
2014,09,21,13,49,20.10
2014,09,21,13,50,20.00
2014,09,21,13,51,19.90
2014,09,21,13,52,19.90
2014,09,21,13,53,19.80
2014,09,21,13,54,19.80
2014,09,21,13,55,19.80
2014,09,21,13,56,19.70
2014,09,21,13,57,19.60
2014,09,21,13,58,19.60
2014,09,21,13,59,19.50
2014,09,21,14,00,19.40
2014,09,21,14,01,19.40
2014,09,21,14,02,19.30
2014,09,21,14,03,19.10
2014,09,21,14,04,19.10
2014,09,21,14,05,19.00
2014,09,21,14,06,18.90
2014,09,21,14,07,19.00
2014,09,21,14,08,19.10
2014,09,21,14,09,19.20
2014,09,21,14,10,19.30
2014,09,21,14,11,19.30
2014,09,21,14,12,19.30
2014,09,21,14,13,19.30
2014,09,21,14,14,19.20
2014,09,21,14,15,19.20
2014,09,21,14,16,19.10
2014,09,21,14,17,19.10
2014,09,21,14,18,19.20
2014,09,21,14,19,19.30
2014,09,21,14,20,19.30
2014,09,21,14,21,19.30
2014,09,21,14,22,19.30
2014,09,21,14,23,19.40
2014,09,21,14,24,19.40
2014,09,21,14,25,19.40
2014,09,21,14,26,19.50
2014,09,21,14,27,19.60
2014,09,21,14,28,19.60
2014,09,21,14,29,19.70
2014,09,21,14,30,19.70
2014,09,21,14,31,19.60
2014,09,21,14,32,19.50
2014,09,21,14,33,19.50
2014,09,21,14,34,19.50
2014,09,21,14,35,19.50
2014,09,21,14,36,19.60
2014,09,21,14,37,19.60
2014,09,21,14,38,19.60
2014,09,21,14,39,19.60
2014,09,21,14,40,19.70
2014,09,21,14,41,19.70
2014,09,21,14,42,19.70
2014,09,21,14,43,19.70
2014,09,21,14,44,19.70
2014,09,21,14,45,19.70
2014,09,21,14,46,19.80
2014,09,21,14,47,19.80
2014,09,21,14,48,19.80
2014,09,21,14,49,19.80
2014,09,21,14,50,19.80
2014,09,21,14,51,19.80
2014,09,21,14,52,19.90
2014,09,21,14,53,19.90
2014,09,21,14,54,19.90
2014,09,21,14,55,19.90
2014,09,21,14,56,19.90
2014,09,21,14,57,19.90
2014,09,21,14,58,19.80
2014,09,21,14,59,19.80
2014,09,21,15,00,19.80
2014,09,21,15,01,19.90
2014,09,21,15,02,19.90
2014,09,21,15,03,19.90
2014,09,21,15,04,19.90
2014,09,21,15,05,19.90
2014,09,21,15,06,19.90
2014,09,21,15,07,20.00
2014,09,21,15,08,20.10
2014,09,21,15,09,20.10
2014,09,21,15,10,20.10
2014,09,21,15,11,20.20
2014,09,21,15,12,20.10
2014,09,21,15,13,20.10
2014,09,21,15,14,20.10
2014,09,21,15,15,20.10
2014,09,21,15,16,20.00
2014,09,21,15,17,19.90
2014,09,21,15,18,19.90
2014,09,21,15,19,19.90
2014,09,21,15,20,19.80
2014,09,21,15,21,19.80
2014,09,21,15,22,19.80
2014,09,21,15,23,19.90
2014,09,21,15,24,19.90
2014,09,21,15,25,19.90
2014,09,21,15,26,19.90
2014,09,21,15,27,20.00
2014,09,21,15,28,20.00
2014,09,21,15,29,19.90
2014,09,21,15,30,19.90
2014,09,21,15,31,19.90
2014,09,21,15,32,19.90
2014,09,21,15,33,19.90
2014,09,21,15,34,19.90
2014,09,21,15,35,19.90
2014,09,21,15,36,19.90
2014,09,21,15,37,20.00
2014,09,21,15,38,20.10
2014,09,21,15,39,20.00
2014,09,21,15,40,19.90
2014,09,21,15,41,19.90
2014,09,21,15,42,19.80
2014,09,21,15,43,19.60
2014,09,21,15,44,19.50
2014,09,21,15,45,19.50
2014,09,21,15,46,19.40
2014,09,21,15,47,19.40
2014,09,21,15,48,19.40
2014,09,21,15,49,19.30
2014,09,21,15,50,19.30
2014,09,21,15,51,19.20
2014,09,21,15,52,19.10
2014,09,21,15,53,19.10
2014,09,21,15,54,19.10
2014,09,21,15,55,19.10
2014,09,21,15,56,19.10
2014,09,21,15,57,19.00
2014,09,21,15,58,18.90
2014,09,21,15,59,18.90
2014,09,21,16,00,18.90
2014,09,21,16,01,18.90
2014,09,21,16,02,18.90
2014,09,21,16,03,18.90
2014,09,21,16,04,18.90
2014,09,21,16,05,18.90
2014,09,21,16,06,18.90
2014,09,21,16,07,18.90
2014,09,21,16,08,19.10
2014,09,21,16,09,19.10
2014,09,21,16,10,19.00
2014,09,21,16,11,18.90
2014,09,21,16,12,18.80
2014,09,21,16,13,18.70
2014,09,21,16,14,18.70
2014,09,21,16,15,18.60
2014,09,21,16,16,18.60
2014,09,21,16,17,18.50
2014,09,21,16,18,18.40
2014,09,21,16,19,18.30
2014,09,21,16,20,18.30
2014,09,21,16,21,18.30
2014,09,21,16,22,18.30
2014,09,21,16,23,18.20
2014,09,21,16,24,18.30
2014,09,21,16,25,18.30
2014,09,21,16,26,18.30
2014,09,21,16,27,18.40
2014,09,21,16,28,18.50
2014,09,21,16,29,18.60
2014,09,21,16,30,18.60
2014,09,21,16,31,18.70
2014,09,21,16,32,18.80
2014,09,21,16,33,18.90
2014,09,21,16,34,18.90
2014,09,21,16,35,19.00
2014,09,21,16,36,19.10
2014,09,21,16,37,19.20
2014,09,21,16,38,19.30
2014,09,21,16,39,19.30
2014,09,21,16,40,19.30
2014,09,21,16,41,19.30
2014,09,21,16,42,19.30
2014,09,21,16,43,19.30
2014,09,21,16,44,19.20
2014,09,21,16,45,19.20
2014,09,21,16,46,19.20
2014,09,21,16,47,19.10
2014,09,21,16,48,19.10
2014,09,21,16,49,19.10
2014,09,21,16,50,19.10
2014,09,21,16,51,19.10
2014,09,21,16,52,19.10
2014,09,21,16,53,19.10
2014,09,21,16,54,19.00
2014,09,21,16,55,18.90
2014,09,21,16,56,18.90
2014,09,21,16,57,18.90
2014,09,21,16,58,18.90
2014,09,21,16,59,18.90
2014,09,21,17,00,18.90
2014,09,21,17,01,18.90
2014,09,21,17,02,18.90
2014,09,21,17,03,19.00
2014,09,21,17,04,19.10
2014,09,21,17,05,19.10
2014,09,21,17,06,19.10
2014,09,21,17,07,19.10
2014,09,21,17,08,19.10
2014,09,21,17,09,19.10
2014,09,21,17,10,19.10
2014,09,21,17,11,19.20
2014,09,21,17,12,19.20
2014,09,21,17,13,19.30
2014,09,21,17,14,19.30
2014,09,21,17,15,19.30
2014,09,21,17,16,19.30
2014,09,21,17,17,19.30
2014,09,21,17,18,19.30
2014,09,21,17,19,19.30